This demonstration page uses our WeatherBlox Daily Observations layout. Learn more.

Hourly Observations for June 22, 2016

Temp ( °F °C ) Dew Point ( °F °C ) Humidity (%) Winds ( mph kmh ) Pressure ( in mb ) Visibility ( mi km ) Precip ( " mm )
12:15 am 00:15 Clear 82 27.7 56 13.1 41 41 SSW 16 26 29.65 1004 10 16.0934 0 0
12:35 am 00:35 Clear 81 27.1 56 13.3 43 43 SSW 14 22 29.65 1004 10 16.0934 0 0
12:55 am 00:55 Clear 80 26.9 56 13.5 44 44 SSW 16 26 29.65 1004 10 16.0934 0 0
1:15 am 01:15 Clear 80 26.6 56 13.5 44 44 SSW 15 24 29.65 1004 10 16.0934 0 0
1:35 am 01:35 Clear 79 26.3 56 13.5 45 45 SSW 15 24 29.65 1004 10 16.0934 0 0
1:55 am 01:55 Clear 79 26 56 13.5 46 46 SSW 14 22 29.65 1004 10 16.0934 0 0
2:15 am 02:15 Clear 78 25.6 57 13.7 48 48 SSW 14 22 29.65 1004 10 16.0934 0 0
2:35 am 02:35 Clear 77 25.2 57 13.7 49 49 SSW 14 22 29.62 1003 10 16.0934 0 0
2:55 am 02:55 Clear 77 24.8 57 13.9 51 51 SSW 13 20 29.62 1003 10 16.0934 0 0
3:15 am 03:15 Clear 75 24.1 57 14 53 53 SSW 10 17 29.65 1004 10 16.0934 0 0
3:35 am 03:35 Clear 76 24.3 57 13.8 52 52 SSW 12 19 29.62 1003 10 16.0934 0 0
3:55 am 03:55 Clear 75 23.7 57 13.8 54 54 SSW 13 20 29.62 1003 10 16.0934 0 0
4:15 am 04:15 Clear 74 23.6 57 13.7 54 54 SW 12 19 29.62 1003 10 16.0934 0 0
4:35 am 04:35 Clear 74 23.3 56 13.6 55 55 SSW 12 19 29.62 1003 10 16.0934 0 0
4:55 am 04:55 Clear 73 23 56 13.6 56 56 SW 13 20 29.62 1003 10 16.0934 0 0
5:15 am 05:15 Clear 73 22.5 56 13.6 57 57 SW 9 15 29.62 1003 10 16.0934 0 0
5:35 am 05:35 Clear 73 22.5 56 13.3 56 56 SW 9 15 29.62 1003 10 16.0934 0 0
5:55 am 05:55 Clear 72 22.2 56 13.2 57 57 SW 8 13 29.62 1003 10 16.0934 0 0
6:15 am 06:15 Sunny 72 22 56 13.1 57 57 WSW 7 11 29.65 1004 10 16.0934 0 0
6:35 am 06:35 Sunny 72 22.1 55 13 56 56 WSW 7 11 29.65 1004 10 16.0934 0 0
6:55 am 06:55 Sunny 73 22.7 55 12.7 53 53 W 8 13 29.65 1004 10 16.0934 0 0
7:15 am 07:15 Sunny 73 22.7 55 13 54 54 W 9 15 29.68 1005 10 16.0934 0 0
7:35 am 07:35 Sunny 75 23.7 56 13.4 53 53 NW 9 15 29.68 1005 10 16.0934 0 0
7:55 am 07:55 Sunny 76 24.5 59 15 56 56 N 16 26 29.68 1005 10 16.0934 0 0
8:15 am 08:15 Partly Cloudy 76 24.5 64 17.9 67 67 NNW 17 28 29.68 1005 10 16.0934 0 0
8:35 am 08:35 Mostly Cloudy 77 25.1 68 20 73 73 N 20 31 29.65 1004 10 16.0934 0 0
8:55 am 08:55 Partly Cloudy 79 25.9 69 20.4 72 72 N 20 31 29.65 1004 10 16.0934 0 0
9:15 am 09:15 Sunny 80 26.5 69 20.5 70 70 N 16 26 29.68 1005 10 16.0934 0 0
9:35 am 09:35 Sunny 80 26.6 68 20.2 68 68 N 20 31 29.68 1005 10 16.0934 0 0
9:55 am 09:55 Sunny 80 26.8 68 19.9 66 66 N 20 31 29.68 1005 10 16.0934 0 0
10:15 am 10:15 Sunny 80 26.5 67 19.7 66 66 N 20 31 29.71 1006 10 16.0934 0 0
10:35 am 10:35 Partly Cloudy 81 27 67 19.6 64 64 NNW 22 35 29.71 1006 10 16.0934 0 0
10:55 am 10:55 Sunny 81 27.1 67 19.6 64 64 N 16 26 29.71 1006 10 16.0934 0 0
11:15 am 11:15 Sunny 79 26 66 19 65 65 N 17 28 29.74 1007 10 16.0934 0 0
11:35 am 11:35 Sunny 79 25.9 66 18.8 65 65 N 18 30 29.74 1007 10 16.0934 0 0
11:55 am 11:55 Sunny 78 25.8 66 19 66 66 NNW 12 19 29.74 1007 10 16.0934 0 0
12:15 pm 12:15 Sunny 80 26.4 67 19.3 65 65 N 17 28 29.77 1008 10 16.0934 0 0
12:35 pm 12:35 Sunny 80 26.8 66 19.1 63 63 NNW 20 31 29.77 1008 10 16.0934 0 0
12:55 pm 12:55 Sunny 81 27.1 66 19.1 62 62 NNW 16 26 29.77 1008 10 16.0934 0 0
1:15 pm 13:15 Sunny 81 27.4 67 19.3 61 61 NNW 16 26 29.77 1008 10 16.0934 0 0
1:35 pm 13:35 Sunny 81 27.2 66 19.1 61 61 NNW 15 24 29.77 1008 10 16.0934 0 0
1:55 pm 13:55 Sunny 81 27.1 66 19.1 62 62 NNW 14 22 29.77 1008 10 16.0934 0 0
2:15 pm 14:15 Sunny 81 27.3 66 19.1 61 61 NNW 16 26 29.77 1008 10 16.0934 0 0
2:35 pm 14:35 Sunny 82 27.6 66 19.1 60 60 N 16 26 29.77 1008 10 16.0934 0 0
2:55 pm 14:55 Sunny 81 27.2 66 18.9 61 61 N 10 17 29.77 1008 10 16.0934 0 0
3:15 pm 15:15 Sunny 82 27.7 67 19.4 61 61 N 9 15 29.77 1008 10 16.0934 0 0
3:35 pm 15:35 Sunny 82 28 66 19 58 58 N 12 19 29.77 1008 10 16.0934 0 0
3:55 pm 15:55 Sunny 83 28.5 66 18.7 55 55 N 12 19 29.77 1008 10 16.0934 0 0
4:15 pm 16:15 Sunny 84 28.9 65 18.6 54 54 N 16 26 29.77 1008 10 16.0934 0 0
4:35 pm 16:35 Sunny 85 29.6 65 18.3 51 51 N 18 30 29.77 1008 10 16.0934 0 0
4:55 pm 16:55 Sunny 86 29.8 65 18.6 51 51 N 16 26 29.74 1007 10 16.0934 0 0
5:15 pm 17:15 Sunny 86 29.9 64 18 49 49 N 14 22 29.74 1007 10 16.0934 0 0
5:35 pm 17:35 Sunny 85 29.3 64 17.6 49 49 N 15 24 29.8 1009 10 16.0934 0 0
5:55 pm 17:55 Sunny 83 28.5 63 17.3 51 51 N 13 20 29.8 1009 10 16.0934 0 0
6:15 pm 18:15 Sunny 82 28 61 16 48 48 N 10 17 29.8 1009 10 16.0934 0 0
6:35 pm 18:35 Sunny 82 27.9 61 16.3 49 49 N 9 15 29.8 1009 10 16.0934 0 0
6:55 pm 18:55 Sunny 82 28 58 14.4 43 43 N 12 19 29.8 1009 10 16.0934 0 0
7:15 pm 19:15 Sunny 81 27.4 58 14.4 45 45 N 9 15 29.8 1009 10 16.0934 0 0
7:35 pm 19:35 Sunny 80 26.5 60 15.4 51 51 NNE 6 9 29.8 1009 10 16.0934 0 0
7:55 pm 19:55 Sunny 80 26.8 61 16 52 52 NNE 6 9 29.83 1010 10 16.0934 0 0
8:15 pm 20:15 Sunny 78 25.7 62 16.9 58 58 Calm 29.85 1011 10 16.0934 0 0
8:35 pm 20:35 Sunny 76 24.3 62 16.7 63 63 NNE 7 11 29.85 1011 10 16.0934 0 0
8:55 pm 20:55 Sunny 74 23.5 59 15 59 59 NNE 7 11 29.85 1011 10 16.0934 0 0
9:15 pm 21:15 Clear 72 22.4 60 15.6 66 66 N 7 11 29.91 1013 10 16.0934 0 0
9:35 pm 21:35 Clear 70 20.9 60 15.7 72 72 NNE 7 11 29.91 1013 10 16.0934 0 0
9:55 pm 21:55 Clear 70 21.1 58 14.6 67 67 NNE 8 13 29.91 1013 10 16.0934 0 0
10:15 pm 22:15 Clear 69 20.7 57 14 66 66 NNE 8 13 29.91 1013 10 16.0934 0 0
10:35 pm 22:35 Clear 68 20.1 57 13.9 68 68 NNE 7 11 29.91 1013 10 16.0934 0 0
10:55 pm 22:55 Clear 67 19.6 56 13.6 68 68 NNE 7 11 29.97 1015 10 16.0934 0 0
11:15 pm 23:15 Clear 66 18.7 57 14 74 74 N 7 11 29.97 1015 10 16.0934 0 0
11:35 pm 23:35 Clear 67 19.7 56 13.5 68 68 N 6 9 29.97 1015 10 16.0934 0 0
11:55 pm 23:55 Clear 65 18.3 57 14.1 77 77 N 6 9 29.97 1015 10 16.0934 0 0

Powered by AerisWeather